GFSFLT2_sfc_thetae_000.txt.gz
Theta_e
316 317 317 312 309 314 308 309 304 308 312 317 320 319 320 323 324 330 332 334 338 342 345 347 349 352 354 355 356 355 352 358
315 317 317 315 316 307 308 302 300 305 307 308 318 317 319 319 321 326 334 335 336 340 345 350 350 353 353 356 356 352 353 352
314 312 310 312 311 311 311 308 302 301 305 319 321 321 319 320 323 324 327 336 338 341 347 352 350 350 349 351 353 350 351 353
310 316 317 315 313 313 307 307 309 308 306 320 320 319 320 322 323 327 330 335 342 342 348 350 349 347 345 344 346 347 349 352
308 312 315 311 314 313 312 312 310 305 307 323 320 320 323 322 325 334 337 344 344 343 344 348 349 347 343 341 341 343 347 343
303 309 313 310 311 312 311 308 309 309 312 317 319 321 327 326 329 331 338 339 345 344 344 347 348 346 344 340 340 341 341 342
310 311 311 311 311 311 309 311 308 311 313 318 321 322 323 324 327 329 334 338 345 343 345 347 347 345 344 341 345 342 343 345
308 311 311 309 311 312 312 311 311 312 314 320 324 325 323 322 323 327 330 331 340 345 344 348 347 345 342 341 344 348 341 343
306 310 310 306 310 311 312 314 313 311 319 323 321 320 321 324 325 328 330 332 334 343 343 351 347 345 341 344 345 345 346 346
307 312 301 311 317 315 313 315 316 316 320 323 321 321 323 326 328 327 330 332 335 338 346 350 347 344 346 344 344 346 345 345
307 305 309 312 315 315 312 314 319 318 320 323 322 321 325 330 328 328 334 340 341 337 342 349 346 347 347 342 343 344 343 344
311 304 301 313 317 321 319 308 321 320 321 320 321 313 323 333 330 330 332 339 343 345 347 349 348 348 344 341 343 341 342 344
307 305 307 317 319 320 306 307 321 323 322 323 322 325 332 333 332 333 337 339 344 348 348 350 350 347 341 341 342 344 345 346
310 306 304 321 318 312 325 327 324 325 326 325 325 326 327 328 336 335 337 339 343 348 348 351 352 349 342 343 348 355 351 349
314 310 320 324 324 326 326 328 325 325 324 325 323 323 325 328 329 337 338 340 342 346 351 351 351 355 352 353 354 356 354 353
313 314 315 321 321 323 323 323 322 323 323 324 323 324 328 330 332 340 340 341 343 347 346 347 355 354 355 354 354 350 351 352
316 314 320 320 320 321 322 323 323 324 323 323 325 327 332 333 341 341 343 339 340 340 335 332 333 330 336 343 343 347 348 347
309 317 319 318 319 320 319 318 321 323 323 324 326 329 334 338 341 342 340 341 335 335 332 327 334 337 340 340 346 345 342 338
315 317 317 318 319 320 317 317 318 318 322 323 325 327 335 335 340 332 339 338 334 331 337 333 334 340 339 340 339 340 338 338

GFSFLT2_sfc_thetae_006.txt.gz
Theta_e
307 309 305 300 296 301 295 295 293 296 302 311 316 317 318 318 321 325 329 331 332 335 337 341 344 347 349 343 340 336 333 331
307 307 306 304 304 296 293 289 287 294 297 300 310 313 317 317 317 320 327 331 332 334 336 342 343 347 350 344 340 337 336 332
302 300 300 301 298 297 297 294 290 289 294 306 314 315 317 318 321 319 323 328 330 333 335 341 343 346 348 345 342 338 337 334
298 305 306 304 301 298 294 292 293 293 296 311 313 314 319 320 322 319 321 326 329 331 333 338 340 345 346 345 343 341 339 337
294 298 301 303 302 300 297 295 293 293 297 311 310 310 312 312 314 316 320 322 328 329 331 335 339 343 345 345 344 342 341 337
294 295 300 298 302 302 299 294 294 296 300 304 309 311 312 313 315 317 320 322 328 329 330 335 338 342 344 345 345 341 340 337
299 304 305 304 304 302 298 299 298 299 301 304 310 312 313 315 317 318 318 324 324 330 333 335 338 341 343 344 342 339 338 335
300 303 305 302 304 305 305 304 303 302 304 309 313 315 313 315 315 316 318 324 328 328 334 336 338 340 341 342 341 338 336 335
294 301 302 300 303 304 306 310 306 299 303 311 310 312 311 312 313 314 316 318 323 333 334 339 340 340 337 338 338 335 335 334
295 295 291 300 309 312 310 310 310 308 310 313 313 313 313 312 313 314 316 316 316 320 330 340 343 341 336 334 335 334 333 332
292 291 296 304 307 309 307 307 314 311 312 312 314 315 313 315 314 315 315 318 320 322 328 335 341 338 333 333 334 332 331 332
299 294 290 300 312 315 312 301 313 314 313 312 313 307 310 316 318 320 322 323 324 324 336 335 335 335 333 332 331 331 332 333
297 295 298 309 315 315 298 301 313 314 312 311 311 313 315 316 317 320 322 325 327 333 337 334 335 334 331 330 330 332 333 332
299 296 293 314 313 308 310 312 315 316 316 316 315 317 317 317 315 316 317 321 326 329 334 335 334 334 331 328 328 328 325 325
304 302 310 314 312 313 313 312 315 314 316 316 316 317 321 319 319 318 319 321 325 328 333 334 335 330 324 321 325 325 322 322
308 311 314 316 316 316 317 316 317 317 318 317 316 319 320 321 323 327 328 325 331 329 327 325 326 325 322 324 324 322 321 321
308 314 314 315 315 316 318 319 319 318 318 318 318 326 329 328 327 326 325 325 326 326 325 321 322 322 323 324 322 321 322 322
303 312 310 311 315 316 312 313 315 313 312 314 317 321 331 329 327 324 322 323 325 325 325 322 321 321 322 324 322 319 317 319
310 314 313 315 315 312 309 309 311 310 308 308 309 312 316 326 325 322 323 324 325 325 323 324 323 323 325 325 323 322 323 324

GFSFLT2_sfc_thetae_009.txt.gz
Theta_e
304 305 304 297 293 298 291 291 290 293 298 306 312 313 319 319 319 325 328 332 336 338 338 339 342 344 346 347 346 339 332 328
302 304 303 302 301 293 291 287 286 291 294 297 305 309 315 316 317 323 327 330 334 337 337 340 343 345 346 348 346 340 332 329
300 298 297 298 295 293 294 291 288 288 293 302 306 311 313 316 319 323 326 329 331 334 336 337 342 344 345 346 345 340 334 331
295 300 302 300 298 297 294 290 290 291 294 306 309 314 316 317 318 319 324 328 331 332 334 334 337 341 344 345 343 340 335 332
291 293 297 297 299 295 294 293 292 292 295 307 308 311 315 316 317 318 320 323 329 331 332 333 336 339 342 345 343 341 336 333
293 293 297 296 300 299 297 292 292 294 298 303 307 309 310 313 316 318 319 321 325 327 330 332 334 338 341 345 345 342 337 335
298 300 299 300 300 300 298 299 298 298 299 304 307 309 311 313 313 315 317 318 322 325 326 329 331 336 340 344 345 342 339 336
295 299 300 299 301 302 302 299 299 298 300 306 310 310 310 312 313 314 315 318 321 324 325 325 330 334 339 342 343 342 340 337
294 297 299 295 300 301 303 305 303 298 302 307 308 310 311 311 314 315 316 322 322 322 326 329 331 335 338 341 343 340 340 337
295 294 291 298 306 307 307 309 309 308 304 309 310 314 312 311 312 313 315 318 323 326 326 331 333 336 337 341 340 338 336 334
291 291 298 304 308 306 303 304 311 310 310 311 312 312 310 313 313 314 314 314 315 320 326 329 334 337 336 336 337 336 334 333
292 291 292 303 311 314 311 300 312 312 311 311 311 307 307 314 314 315 315 319 319 321 323 329 330 336 333 331 333 333 334 332
295 296 299 308 312 314 299 300 312 311 309 310 307 309 310 313 315 317 318 320 322 321 328 331 332 331 329 329 330 331 331 331
298 295 294 311 311 304 307 309 311 311 312 312 313 315 316 318 317 317 317 317 320 322 327 333 331 329 326 325 328 329 327 325
302 299 307 311 308 312 312 310 311 312 313 314 317 315 318 319 320 322 324 326 327 324 325 328 329 328 324 324 325 326 325 322
306 307 310 312 313 314 314 313 314 315 314 315 318 324 320 322 325 326 326 327 328 327 326 323 324 325 323 324 323 323 322 321
306 312 313 312 313 315 316 316 315 314 316 316 315 314 318 323 325 326 326 324 325 322 321 320 321 322 323 324 325 324 323 324
303 312 310 310 314 316 311 311 311 310 309 310 311 310 316 323 326 323 323 322 322 319 318 320 322 322 323 324 324 322 320 321
310 314 312 312 312 313 310 310 310 309 309 308 308 309 309 310 316 321 322 321 321 321 320 320 320 320 320 320 322 320 317 318

GFSFLT2_sfc_thetae_015.txt.gz
Theta_e
306 309 310 306 303 311 303 300 301 305 310 314 319 320 322 325 329 331 334 336 337 340 341 344 347 350 351 354 355 356 355 359
306 309 308 307 310 301 302 298 295 300 303 305 315 318 323 323 326 330 334 336 338 341 344 346 347 350 352 354 354 356 354 357
304 303 303 304 303 304 306 304 299 297 301 315 317 321 322 324 326 329 333 335 339 343 344 347 347 348 349 352 354 355 356 358
302 306 307 307 305 306 302 301 302 302 303 314 317 320 322 324 326 328 332 334 339 341 343 344 346 346 347 351 350 354 355 357
299 303 305 303 305 306 306 306 305 299 302 317 316 317 320 321 326 328 331 334 338 340 343 346 346 349 349 350 349 352 355 353
298 302 305 301 302 304 304 301 302 302 306 312 315 318 322 323 326 328 329 333 336 339 342 346 349 350 350 350 350 351 352 352
305 307 305 304 302 303 302 305 302 305 306 313 317 320 323 328 329 327 328 331 336 337 342 346 348 351 351 350 354 354 354 353
301 304 305 302 304 304 304 304 305 306 308 317 321 321 321 324 326 327 328 330 334 338 340 342 345 345 346 349 351 354 354 351
300 304 302 299 303 304 305 307 307 304 311 319 316 318 322 327 327 328 331 331 332 336 341 342 342 344 344 347 350 352 352 352
301 300 292 303 309 308 306 308 310 310 313 318 318 322 324 327 328 329 332 333 334 333 336 340 341 342 346 347 349 351 352 351
299 300 303 305 310 305 304 306 312 311 315 317 317 319 321 323 324 328 329 331 333 334 336 339 339 342 344 345 348 350 350 350
302 295 295 307 313 317 315 303 317 318 319 319 318 312 319 322 324 326 329 333 335 335 338 340 342 344 345 346 347 348 349 349
304 300 304 311 314 317 304 308 317 319 320 319 318 319 322 325 328 331 331 332 336 338 339 343 345 347 346 346 346 350 349 349
305 301 300 315 314 310 315 317 318 320 320 321 324 326 328 330 331 333 334 335 337 339 339 342 345 347 345 344 344 345 345 344
308 306 315 317 315 318 320 320 321 322 322 324 322 324 327 328 330 331 334 334 337 337 338 340 343 346 341 337 342 343 341 339
310 313 314 315 317 318 318 317 318 320 321 322 322 327 330 332 333 333 333 333 335 333 331 331 337 340 337 338 341 341 340 339
310 312 315 316 315 315 315 316 316 317 318 318 317 319 325 330 332 333 334 334 335 334 333 330 334 335 339 339 340 338 338 337
307 315 315 315 315 315 313 313 315 315 316 319 320 320 322 324 328 331 332 332 331 333 332 331 334 335 337 338 336 336 333 333
311 313 310 311 311 312 311 311 312 312 313 313 317 321 322 322 324 323 331 334 334 335 334 334 334 335 337 337 337 335 334 334

GFSFLT2_sfc_thetae_021.txt.gz
Theta_e
313 313 311 310 308 315 309 311 307 311 315 320 324 325 326 326 326 327 335 339 338 339 339 341 348 355 359 363 369 372 370 375
312 313 312 310 315 308 311 304 303 308 310 312 319 321 323 324 325 327 331 337 339 339 340 344 345 352 359 363 369 371 371 372
313 309 307 307 308 311 312 310 304 303 309 320 321 323 322 324 326 327 329 335 339 340 341 345 345 347 353 360 366 368 369 370
309 314 314 311 309 310 310 308 310 308 309 321 322 323 324 325 326 328 329 331 336 340 341 343 347 346 349 354 356 364 367 371
306 310 312 309 310 310 311 313 311 306 308 322 323 323 324 324 325 327 329 330 332 338 341 346 349 352 351 354 352 357 364 365
304 307 310 306 307 309 309 307 308 309 312 318 320 321 323 324 326 327 328 334 337 336 340 347 351 355 357 355 354 356 358 360
310 311 311 309 307 307 306 309 306 310 311 316 320 322 324 325 326 326 327 330 338 338 339 352 354 358 359 360 361 359 362 363
308 310 310 308 310 309 308 308 308 310 310 319 322 324 324 324 325 325 326 327 335 341 343 351 355 359 361 361 362 363 366 365
304 309 309 305 309 310 311 312 310 306 311 317 318 321 324 329 326 326 327 331 329 341 346 354 354 360 360 364 364 365 367 367
305 308 299 310 316 314 312 313 315 314 315 316 317 320 325 328 329 329 329 331 332 339 344 350 352 354 361 359 365 367 367 368
303 304 308 311 315 314 313 313 316 315 317 318 318 318 321 325 328 330 333 335 334 339 344 351 354 360 364 362 361 363 363 367
307 302 300 310 319 322 321 308 318 320 320 318 318 311 318 327 325 327 332 334 336 339 344 348 356 355 360 361 362 362 364 364
306 305 308 319 319 322 308 311 327 327 326 326 322 320 324 326 329 330 334 336 344 347 345 358 359 359 360 359 357 360 359 360
307 304 301 322 321 314 323 328 328 329 329 327 329 327 324 334 335 336 337 339 343 344 348 353 360 361 360 359 364 365 364 363
309 309 324 324 324 326 327 327 329 331 330 330 330 330 333 335 337 339 341 343 345 348 353 352 359 362 359 367 368 365 362 360
316 320 320 322 323 325 327 326 331 332 333 332 333 336 337 338 339 340 342 344 346 347 349 351 361 362 362 363 362 362 357 352
318 320 320 321 322 323 324 326 328 332 334 334 335 333 335 336 337 338 340 341 343 344 346 348 352 353 356 357 358 353 349 345
315 321 321 318 320 322 322 323 325 325 327 328 329 331 332 334 339 338 337 339 340 344 347 349 351 351 354 355 354 350 347 345
316 324 319 317 317 316 317 317 319 321 323 324 325 326 327 326 329 326 339 342 342 343 345 348 348 347 351 352 351 350 346 345

GFSFLT2_sfc_thetae_024.txt.gz
Theta_e
313 313 311 308 305 311 306 309 306 309 314 319 325 323 327 326 328 328 335 338 339 341 343 345 348 351 354 362 364 367 368 367
313 314 312 309 312 304 305 300 301 307 310 312 320 320 325 325 326 328 332 336 339 339 342 345 349 352 355 359 364 367 368 368
313 309 308 307 305 307 308 307 303 302 308 321 323 326 325 326 327 328 328 334 338 339 341 344 347 350 353 356 363 366 367 368
307 314 314 311 307 307 302 305 307 308 309 321 323 325 328 327 328 329 330 331 336 340 341 342 343 347 350 354 356 363 366 367
304 309 313 309 309 309 307 307 307 304 307 321 326 322 324 327 328 330 331 336 337 337 340 342 343 345 348 351 354 361 364 364
302 306 310 308 308 309 307 303 305 308 312 317 321 323 325 327 328 331 339 341 339 343 339 342 344 346 347 349 353 356 362 362
308 309 311 310 308 308 307 308 305 308 312 317 320 323 326 329 332 332 336 337 344 339 347 346 346 347 348 350 352 355 358 360
307 309 309 308 309 309 309 308 309 309 309 319 323 325 326 323 325 329 332 335 342 345 347 354 351 350 349 351 352 355 355 358
303 308 308 303 309 310 309 310 309 306 312 319 319 320 324 332 331 330 330 332 334 344 347 350 356 355 351 352 357 356 359 359
305 308 297 309 315 313 311 312 312 313 315 317 318 320 322 326 327 329 333 333 338 333 344 351 351 354 360 356 358 360 359 362
302 302 306 308 312 312 310 312 317 314 318 318 320 320 320 324 325 328 331 337 337 334 332 348 349 356 359 360 358 359 359 366
304 300 298 311 314 320 320 308 320 322 320 320 322 315 321 326 325 326 328 331 337 334 333 339 352 354 359 358 360 358 361 362
303 302 305 318 320 322 308 312 326 326 326 325 322 327 334 333 333 327 331 329 335 350 349 353 355 356 358 359 359 362 365 366
306 303 300 321 319 312 322 328 327 328 328 328 330 332 332 332 334 338 342 337 342 352 363 361 360 364 360 360 365 368 366 366
309 308 322 325 324 328 329 328 328 327 328 329 328 329 330 336 339 337 340 346 345 354 362 365 371 365 361 366 366 365 363 363
310 319 322 324 326 327 328 328 334 334 333 334 330 335 337 338 339 341 348 349 353 353 354 357 364 364 365 363 365 363 363 361
311 322 321 322 324 325 328 331 331 331 334 333 335 336 338 339 342 344 347 349 353 353 354 359 363 362 364 363 362 358 353 351
312 316 319 322 325 326 323 324 327 327 328 330 328 327 328 334 340 341 341 345 344 343 346 351 353 354 358 360 355 350 345 344
314 313 313 318 319 321 320 321 321 322 323 324 326 328 329 327 328 330 340 345 346 348 350 351 352 353 356 356 354 350 347 344

GFSFLT2_sfc_thetae_030.txt.gz
Theta_e
307 306 305 297 293 298 290 291 290 294 300 307 315 316 323 324 325 324 325 326 329 332 335 336 338 342 346 346 345 350 350 349
307 307 306 302 299 292 287 287 287 291 295 299 305 313 316 322 324 325 325 326 328 329 333 337 338 342 347 348 346 348 352 352
301 301 300 299 296 294 293 292 290 286 294 302 304 309 314 321 324 324 325 326 328 329 332 336 339 342 347 348 347 349 351 352
297 303 306 305 300 295 293 288 290 294 295 305 306 311 318 320 323 325 326 325 329 330 330 333 338 340 344 350 349 351 353 353
292 298 302 298 301 301 291 291 293 290 293 304 303 312 317 318 320 323 322 322 325 327 329 332 336 339 343 349 351 352 353 353
293 294 298 295 301 300 298 295 293 295 293 298 302 310 316 319 321 321 322 322 323 326 330 332 336 338 342 346 352 353 354 353
296 300 302 301 301 302 297 299 295 297 296 298 300 308 314 319 321 321 321 322 323 325 330 332 336 338 341 345 351 353 354 354
294 301 302 300 302 303 302 301 300 296 296 301 304 306 311 316 318 318 316 320 320 326 330 333 336 338 341 343 350 353 353 354
287 297 299 296 301 302 302 304 302 297 299 303 304 309 311 315 316 318 317 318 322 326 330 334 336 339 340 343 348 352 352 354
288 291 289 300 306 306 302 303 305 303 303 305 306 306 313 313 316 318 317 319 324 327 329 334 336 339 342 343 345 350 351 353
287 289 295 302 302 303 299 300 307 304 306 307 308 308 314 316 312 309 314 316 320 327 331 331 334 336 339 340 343 344 348 350
292 288 289 298 306 311 308 297 316 308 308 310 307 300 306 319 320 319 319 317 315 324 331 336 337 335 336 337 340 342 344 346
292 291 295 305 310 310 298 299 317 316 314 313 311 309 317 321 319 319 326 324 318 314 320 333 338 338 335 336 337 341 345 346
295 293 290 313 314 301 306 316 318 317 316 317 317 323 323 324 321 320 322 331 327 319 316 318 334 342 337 336 340 342 342 343
299 300 308 310 317 323 325 323 324 324 324 328 327 328 332 335 337 338 340 342 343 337 343 343 330 343 341 341 341 344 344 346
303 306 310 310 315 323 323 322 323 325 327 329 327 330 332 335 336 338 341 343 345 345 344 344 345 343 342 345 345 348 347 354
304 309 312 313 312 317 322 323 322 322 322 323 327 326 331 332 334 337 337 339 342 344 346 346 347 347 352 353 354 353 354 353
304 309 310 309 313 316 314 315 318 319 319 321 322 321 326 326 330 334 336 338 338 338 338 341 343 342 345 349 350 348 340 338
310 313 310 313 314 314 313 315 316 316 316 317 318 321 322 322 325 327 333 335 335 335 337 339 341 340 341 340 341 341 335 332

GFSFLT2_sfc_thetae_033.txt.gz
Theta_e
305 303 303 295 293 297 287 288 286 291 296 304 309 311 314 319 321 322 324 328 329 331 331 333 335 338 341 342 343 346 348 348
303 304 302 300 297 290 284 284 284 287 292 296 304 308 311 316 319 322 324 326 328 330 331 334 335 338 341 343 343 345 348 348
300 297 299 295 294 291 291 287 286 283 291 299 304 309 311 316 321 323 324 325 327 329 331 333 335 337 340 342 343 344 346 347
296 300 305 301 297 291 288 287 288 292 292 301 306 307 310 314 319 324 326 326 327 328 330 332 334 336 340 342 343 344 347 347
288 292 295 297 298 299 297 289 292 288 290 301 303 304 309 312 316 321 325 325 325 326 327 329 333 335 339 342 344 344 345 347
287 289 294 293 297 299 296 291 294 294 292 296 299 302 307 313 316 318 321 322 325 325 326 327 332 335 338 343 345 345 346 346
292 295 296 297 297 299 295 297 294 297 295 298 299 302 306 311 316 317 318 321 323 325 325 326 329 334 337 342 346 346 346 346
290 296 297 296 298 300 300 300 297 296 294 299 303 301 302 306 311 315 317 320 320 324 327 328 329 333 337 340 346 348 346 347
284 292 293 292 297 299 300 302 301 296 297 300 300 301 302 304 309 314 317 321 318 319 323 328 330 334 335 338 343 348 348 348
284 288 284 296 302 304 301 301 301 299 300 302 304 305 307 307 308 313 316 315 316 319 320 327 331 334 337 339 342 346 348 349
284 284 291 297 301 300 298 298 303 303 303 303 305 306 306 312 310 314 316 316 318 322 323 325 330 334 336 337 340 345 346 348
287 284 284 294 306 311 306 296 305 304 304 304 304 300 305 316 313 311 309 314 317 323 326 325 328 334 336 336 339 343 347 348
288 287 290 301 310 314 294 298 309 309 305 303 302 306 307 318 317 316 319 318 313 318 326 329 328 333 335 337 338 342 346 350
289 290 287 310 311 306 308 317 316 313 313 311 314 315 317 318 316 317 320 326 319 313 314 322 330 330 331 334 339 342 343 344
295 296 305 309 313 315 317 318 321 316 321 325 326 326 329 330 333 336 337 338 339 335 333 336 320 333 329 332 336 337 338 341
301 306 309 313 315 315 316 318 321 325 326 331 329 330 331 333 334 336 338 340 341 341 339 340 344 339 335 336 333 332 335 337
301 307 310 314 314 314 318 318 320 321 321 324 330 328 331 332 334 335 337 338 339 342 342 342 343 342 344 345 339 334 336 335
297 308 308 310 314 315 315 315 316 318 319 321 322 322 327 327 329 332 333 334 336 336 339 341 340 341 342 342 341 344 341 335
306 312 311 313 315 317 314 316 318 319 320 321 324 326 326 325 326 326 331 331 333 335 337 338 335 336 335 338 337 333 330 329

GFSFLT2_sfc_thetae_036.txt.gz
Theta_e
301 301 301 292 292 294 286 286 284 288 294 302 306 307 315 317 319 320 324 329 330 332 333 333 335 339 339 341 342 343 345 346
301 302 301 296 297 290 284 282 281 285 289 293 301 305 308 311 317 320 322 325 329 331 332 333 335 338 340 341 341 343 346 347
298 297 297 293 291 288 291 286 284 282 288 297 302 305 307 310 315 319 321 323 326 329 332 333 334 336 339 340 341 342 346 347
292 297 302 302 295 290 287 285 287 285 289 300 302 306 308 309 313 318 322 324 325 328 331 332 332 334 337 339 341 342 345 347
287 294 295 295 297 296 294 287 289 287 290 301 301 303 305 309 312 318 321 322 324 326 328 330 332 334 335 338 340 342 344 345
285 287 292 290 295 296 296 292 292 292 293 297 299 301 304 306 310 312 316 321 323 324 327 329 331 333 335 338 341 342 343 344
290 293 294 294 294 295 294 296 293 295 295 297 299 301 304 305 310 315 317 319 321 323 325 327 330 333 335 338 341 343 343 343
288 294 294 292 295 296 296 296 296 297 295 300 303 302 303 306 308 312 316 319 321 324 326 325 328 332 335 337 341 343 343 342
283 290 291 289 294 296 296 298 297 294 298 301 300 301 303 305 305 307 312 318 319 321 324 326 327 332 334 337 342 343 343 343
283 286 281 292 298 300 298 300 300 299 302 303 304 305 305 306 308 307 308 315 319 321 324 327 329 330 334 337 340 343 343 344
282 283 289 293 300 303 300 298 303 301 302 303 305 305 304 306 306 308 310 313 318 322 324 325 327 330 334 336 339 343 344 344
283 282 282 294 305 311 310 296 304 305 304 304 302 298 304 309 313 312 313 316 317 319 322 322 325 329 333 334 337 340 345 346
284 285 289 297 309 315 296 297 313 315 315 304 302 307 309 311 316 314 313 313 316 321 325 326 328 332 332 334 336 340 344 348
284 284 282 307 308 304 306 312 316 316 318 317 304 306 312 317 317 317 323 325 320 315 317 324 330 334 334 334 339 342 344 347
288 287 298 308 308 312 314 314 316 318 320 320 310 312 318 322 330 335 337 339 337 337 340 343 335 331 330 333 337 339 341 342
294 297 301 308 313 314 315 315 317 320 322 323 324 328 331 334 335 335 336 337 339 341 341 342 344 343 342 346 341 335 336 338
294 298 305 311 311 313 316 318 318 323 325 331 333 332 334 334 335 334 335 337 339 339 338 341 343 344 345 346 341 335 336 337
291 299 303 307 311 316 316 316 320 322 325 327 330 328 330 328 330 331 330 333 333 333 333 334 337 339 340 340 343 337 332 330
298 305 308 312 314 317 316 317 320 322 325 325 328 328 328 326 327 325 330 333 333 331 333 334 333 331 332 337 337 333 330 330

GFSFLT2_sfc_thetae_042.txt.gz
Theta_e
310 310 310 306 303 308 302 304 300 304 307 313 316 318 320 321 324 328 335 339 341 344 346 348 350 355 359 362 365 366 363 368
308 311 311 309 310 301 303 296 295 301 303 305 311 314 318 319 323 327 332 338 340 342 345 347 350 354 358 363 365 365 362 365
308 305 305 306 305 306 306 303 298 297 302 313 313 317 317 320 324 328 332 336 340 342 344 347 349 350 354 358 362 362 363 365
304 309 311 310 307 307 301 301 303 303 304 313 314 316 320 321 324 328 331 334 337 339 343 345 347 349 350 353 355 358 362 366
303 306 309 306 308 308 307 307 304 300 303 315 316 315 319 321 323 326 329 332 334 336 338 343 346 352 349 350 352 355 360 359
301 304 307 304 306 307 306 303 304 304 306 311 312 314 318 319 321 323 326 330 332 334 337 340 346 353 356 351 351 352 354 356
306 302 302 306 305 306 305 307 303 307 308 312 314 315 317 319 320 321 324 328 332 335 336 339 343 353 356 353 356 354 359 358
300 302 301 300 304 305 307 308 308 308 309 316 317 318 318 319 319 320 321 324 328 334 338 341 345 348 351 354 355 357 359 358
296 302 301 297 302 304 306 308 308 305 311 315 315 315 317 319 321 321 323 324 326 332 337 341 342 347 349 355 355 357 359 361
296 299 290 303 311 309 306 308 310 310 312 314 316 318 320 322 322 322 323 325 327 328 331 339 342 340 349 350 357 358 359 361
292 293 299 302 303 304 305 306 311 311 313 314 316 316 317 320 322 324 326 327 329 329 329 332 334 339 345 350 351 354 359 360
294 290 290 301 307 309 309 301 313 314 317 318 318 309 314 322 323 325 326 327 327 329 330 331 334 337 341 348 353 356 358 360
290 290 296 304 307 314 299 309 320 319 321 322 322 324 330 332 331 332 332 331 332 332 332 338 339 343 346 348 350 357 356 357
291 289 287 303 303 300 310 314 316 318 319 320 323 326 327 330 333 335 335 333 329 333 334 338 346 347 355 355 358 360 359 356
294 293 302 304 304 309 311 310 312 314 319 321 322 324 327 329 333 337 338 334 336 338 338 346 349 351 351 362 363 358 358 360
296 299 301 304 307 309 309 309 311 314 315 318 319 323 327 330 335 340 337 342 346 344 346 349 353 354 355 358 360 359 357 359
296 300 302 303 306 307 308 308 308 311 314 318 319 321 328 329 339 341 340 347 349 350 350 354 354 356 356 357 358 356 357 358
293 301 301 303 306 308 309 312 313 314 316 319 322 323 327 334 343 344 345 347 351 352 349 350 348 348 359 361 358 357 356 354
300 303 304 306 308 308 308 309 311 312 317 319 323 328 330 338 339 332 338 341 345 346 348 348 349 350 345 352 358 356 353 350

GFSFLT2_sfc_thetae_045.txt.gz
Theta_e
312 312 312 308 305 310 305 306 303 305 310 315 319 320 322 323 327 330 333 338 341 344 345 345 348 354 356 362 368 370 370 371
311 313 312 311 312 303 305 299 299 304 306 307 313 316 320 321 324 328 333 337 340 343 346 348 348 353 358 362 367 369 369 371
312 308 307 307 308 308 308 306 301 300 305 315 316 318 318 321 324 326 329 335 338 342 345 349 350 350 355 360 363 368 369 370
308 312 313 312 309 309 304 304 305 306 307 317 318 318 320 321 324 326 330 333 337 341 344 346 350 350 352 356 358 366 368 369
306 309 311 309 310 311 310 309 306 302 306 318 317 318 321 321 324 328 331 333 335 339 342 344 347 354 354 356 355 358 365 365
304 307 309 306 308 310 310 306 306 307 309 313 315 316 320 322 325 327 331 333 335 337 340 344 348 355 357 354 354 357 360 362
309 311 310 309 308 309 307 309 306 309 310 314 316 318 320 323 324 324 326 328 331 333 336 340 348 356 359 356 359 357 361 363
306 310 307 306 309 309 309 309 310 310 311 319 320 320 320 321 321 321 322 327 329 332 336 338 343 354 357 360 358 361 362 362
301 307 306 302 307 309 310 312 311 308 314 319 318 318 319 321 322 321 324 325 326 328 333 339 341 348 352 359 362 362 361 366
299 304 296 307 314 312 310 312 314 314 316 318 319 320 322 324 323 324 325 326 327 328 330 335 338 341 350 349 362 363 364 361
296 299 304 307 310 310 308 308 314 314 315 316 318 319 320 323 324 325 326 327 328 329 329 332 332 340 344 349 354 361 362 364
298 295 296 306 310 312 313 304 315 315 315 316 318 312 316 324 327 330 332 334 335 333 330 331 334 333 337 341 357 360 362 365
294 294 300 308 312 313 301 310 320 318 318 320 320 325 331 332 332 334 336 337 338 338 335 339 339 342 346 346 350 359 361 364
294 293 292 309 307 304 311 318 318 319 320 321 324 325 328 330 331 333 335 338 340 339 338 338 344 352 356 357 359 368 366 365
297 297 307 308 308 311 312 311 313 314 315 318 318 319 323 326 330 333 336 341 343 340 345 347 350 355 357 363 372 369 369 368
298 302 304 306 308 309 310 310 312 313 314 314 313 316 319 324 326 331 334 341 344 342 346 348 353 355 363 365 371 371 369 370
298 301 303 305 307 308 309 310 310 312 312 313 317 317 319 322 326 331 334 343 345 349 348 350 355 358 359 362 366 363 363 361
294 302 303 304 307 309 308 308 310 310 312 315 316 315 318 320 326 332 337 347 348 352 356 356 356 359 364 362 362 361 358 357
301 305 305 307 308 309 308 309 310 311 312 312 313 314 316 320 327 330 344 345 345 351 354 354 351 347 356 364 362 363 365 364

GFSFLT2_sfc_thetae_048.txt.gz
Theta_e
314 313 312 307 303 309 303 304 300 304 308 314 319 320 323 323 328 330 331 339 342 344 344 343 344 346 348 355 360 363 362 364
312 314 312 310 311 302 304 297 297 302 306 307 313 317 320 321 323 328 333 336 341 343 345 345 345 346 350 355 360 363 365 365
311 308 306 307 307 306 306 304 299 299 303 316 317 318 320 322 324 326 331 335 339 342 346 347 346 346 349 352 360 363 365 366
306 313 313 310 308 309 303 302 305 305 305 317 319 321 321 322 325 326 330 336 339 342 345 347 347 346 348 351 354 362 365 366
303 310 311 308 309 309 310 307 305 301 304 319 318 320 322 322 324 328 333 336 338 340 344 346 348 348 348 351 352 357 365 365
301 306 311 307 308 309 308 305 305 306 308 313 315 316 321 324 325 328 332 332 337 339 341 347 349 350 352 351 353 356 360 364
308 310 311 308 307 308 307 309 305 309 310 314 316 318 322 326 328 328 331 334 340 338 339 346 350 352 354 354 355 356 357 360
305 308 309 308 308 308 309 309 310 310 311 319 320 323 324 326 325 328 330 332 336 340 344 347 349 354 354 355 357 358 358 358
299 307 307 304 308 309 310 311 311 308 315 320 319 320 323 326 325 326 325 329 335 338 346 357 350 355 356 355 358 360 358 362
298 304 296 308 315 313 311 312 314 314 317 319 321 324 325 327 325 323 325 327 333 330 334 343 339 341 357 359 360 359 361 361
296 298 304 308 311 311 309 310 315 315 317 319 320 321 323 325 327 328 332 334 334 331 331 342 339 342 352 353 358 361 359 360
298 295 295 306 313 316 315 305 316 316 316 317 318 311 319 332 332 333 336 339 340 340 339 341 343 339 355 350 358 357 359 360
295 294 301 308 311 314 303 308 320 321 320 318 318 325 330 331 332 334 336 337 342 343 342 347 351 350 362 364 356 360 361 364
295 294 293 309 309 305 314 317 316 316 317 319 322 323 324 326 328 331 335 336 340 344 346 350 352 353 354 360 366 376 365 365
297 297 311 308 308 311 311 311 313 313 314 315 315 316 317 319 326 328 332 337 338 345 350 353 352 369 363 364 375 376 375 369
298 302 304 306 309 310 310 310 311 312 312 313 312 313 317 319 323 327 330 334 336 341 347 352 366 366 368 371 371 372 372 370
297 301 304 305 306 308 309 310 310 311 311 311 312 312 317 319 321 324 328 335 337 344 350 355 366 369 367 370 369 366 369 367
295 302 303 305 307 309 308 307 309 309 310 312 313 314 316 318 320 321 324 334 335 347 348 353 360 360 364 368 371 369 365 364
298 303 303 306 309 309 308 309 310 310 311 310 312 313 315 317 319 319 323 331 335 343 349 353 358 354 357 365 370 367 366 362